This is the latest recevied weather packets stored in our database for station/object IW1CBG-23. If no packets are shown the sender has not sent any weather packets the latest 10 day(s).
| Time | Temp. | Humidity | Pressure | Rain* | Wind** | Luminosity | Snow |
|---|---|---|---|---|---|---|---|
| 1788566152 | 21.11° C | 99% | 1017.3 hPa | - | - | - | - |
| 1788564916 | 20.56° C | 99% | 1017.5 hPa | - | - | - | - |
| 1788563678 | 20.56° C | 99% | 1017.5 hPa | - | - | - | - |
| 1788562440 | 21.11° C | 99% | 1017.7 hPa | - | - | - | - |
| 1788561204 | 20.56° C | 98% | 1017.7 hPa | - | - | - | - |
| 1788558734 | 21.67° C | 93% | 1017.6 hPa | - | - | - | - |
| 1788557492 | 21.67° C | 99% | 1017.8 hPa | - | - | - | - |
| 1788556254 | 21.67° C | 99% | 1017.8 hPa | - | - | - | - |
| 1788555017 | 21.67° C | 99% | 1018.1 hPa | - | - | - | - |
| 1788553780 | 20.56° C | 99% | 1018.2 hPa | - | - | - | - |
| 1788552543 | 20.56° C | 99% | 1018.2 hPa | - | - | - | - |
| 1788551324 | 20.56° C | 99% | 1018.2 hPa | - | - | - | - |
| 1788550068 | 20° C | 99% | 1018.1 hPa | - | - | - | - |
| 1788548831 | 21.11° C | 99% | 1018 hPa | - | - | - | - |
| 1788547594 | 20.56° C | 99% | 1017.8 hPa | - | - | - | - |
| 1788546357 | 20.56° C | 99% | 1017.5 hPa | - | - | - | - |
| 1788542651 | 21.67° C | 99% | 1017.3 hPa | - | - | - | - |
| 1788541414 | 22.22° C | 99% | 1017.4 hPa | - | - | - | - |
| 1788540178 | 22.78° C | 99% | 1017.4 hPa | - | - | - | - |
| 1788538941 | 23.33° C | 99% | 1017.4 hPa | - | - | - | - |
| 1788537702 | 23.89° C | 99% | 1017.5 hPa | - | - | - | - |
| 1788536464 | 23.89° C | 99% | 1017.5 hPa | - | - | - | - |
| 1788535228 | 24.44° C | 99% | 1017.5 hPa | - | - | - | - |
| 1788533992 | 25° C | 95% | 1017.5 hPa | - | - | - | - |
| 1788532757 | 25° C | 93% | 1017.6 hPa | - | - | - | - |
* Rain since midnight (hover to see other rain measurements)
** Current wind speed in m/s (hover to see current wind gust speed)